| time (UTC) | temp F | wind direction | speed MPH | gust MPH | rain 1hr in | rain 24hr in | rain mn in | humidity % | barometer mb |
| 20260905052506 | 53 | 0.0 | 0.0 | 0.00 | 0.00 | 0.00 | 86 | 1019.9 | |
| 20260905050241 | 55 | 0.0 | 0.0 | 0.00 | 0.00 | 0.00 | 85 | 1019.1 | |
| 20260905045242 | 55 | 0.0 | 0.0 | 0.00 | 0.00 | 0.00 | 86 | 1019.1 | |
| 20260905044242 | 55 | 0.0 | 0.0 | 0.00 | 0.00 | 0.00 | 87 | 1019.0 | |
| 20260905043242 | 55 | 0.0 | 0.0 | 0.00 | 0.00 | 0.00 | 87 | 1018.8 | |
| 20260905042242 | 55 | 0.0 | 0.0 | 0.00 | 0.00 | 0.00 | 87 | 1018.9 | |
| 20260905041242 | 55 | 0.0 | 0.0 | 0.00 | 0.00 | 0.00 | 88 | 1018.5 | |
| 20260905040242 | 55 | 0.0 | 0.0 | 0.00 | 0.00 | 0.00 | 88 | 1018.2 | |
| 20260905035242 | 55 | 0.0 | 0.0 | 0.00 | 0.00 | 0.00 | 89 | 1018.1 | |
| 20260905034242 | 56 | 0.0 | 0.0 | 0.00 | 0.00 | 0.00 | 88 | 1018.1 | |
| 20260905033242 | 56 | 0.0 | 0.0 | 0.00 | 0.00 | 0.00 | 88 | 1018.1 | |
| 20260905032242 | 56 | 0.0 | 0.0 | 0.00 | 0.00 | 0.00 | 88 | 1017.5 | |
| 20260905030018 | 57 | 0.0 | 0.0 | 0.00 | 0.00 | 0.00 | 84 | 1018.0 | |
| 20260905025018 | 58 | 0.0 | 0.0 | 0.00 | 0.00 | 0.00 | 84 | 1017.8 | |
| 20260905024018 | 58 | 0.0 | 0.0 | 0.00 | 0.00 | 0.00 | 82 | 1017.4 | |
| 20260905023018 | 58 | 0.0 | 0.0 | 0.00 | 0.00 | 0.00 | 81 | 1016.9 | |
| 20260905022018 | 58 | 0.0 | 0.0 | 0.00 | 0.00 | 0.00 | 79 | 1016.7 | |
| 20260905021018 | 59 | 0.0 | 0.0 | 0.00 | 0.00 | 0.00 | 75 | 1016.9 | |
| 20260905020018 | 60 | 0.0 | 0.0 | 0.00 | 0.00 | 0.00 | 72 | 1016.9 | |
| 20260905015018 | 60 | 0.0 | 0.0 | 0.00 | 0.00 | 0.00 | 71 | 1016.4 | |
| 20260905012753 | 61 | 0.0 | 0.0 | 0.00 | 0.00 | 0.00 | 68 | 1016.5 | |
| 20260905011753 | 61 | 0.0 | 0.0 | 0.00 | 0.00 | 0.00 | 67 | 1016.6 | |
| 20260905010753 | 62 | 0.0 | 0.0 | 0.00 | 0.00 | 0.00 | 67 | 1016.4 | |
| 20260905005753 | 62 | 0.0 | 0.0 | 0.00 | 0.00 | 0.00 | 68 | 1016.5 | |
| 20260905004754 | 62 | 0.0 | 0.0 | 0.00 | 0.00 | 0.00 | 68 | 1016.3 | |
| 20260905003754 | 63 | 0.0 | 0.0 | 0.00 | 0.00 | 0.00 | 67 | 1016.2 | |
| 20260905002754 | 64 | 0.0 | 0.0 | 0.00 | 0.00 | 0.00 | 63 | 1015.3 | |
| 20260905001755 | 67 | 0.0 | 0.0 | 0.00 | 0.00 | 0.00 | 58 | 1014.7 | |
| 20260905000754 | 70 | 0.0 | 0.0 | 0.00 | 0.00 | 0.00 | 54 | 1013.9 | |
| 20260904235754 | 70 | 0.0 | 0.0 | 0.00 | 0.00 | 0.00 | 53 | 1013.6 | |
| 20260904234753 | 70 | 0.0 | 0.0 | 0.00 | 0.00 | 0.00 | 52 | 1013.7 | |
| 20260904233754 | 70 | 0.0 | 0.0 | 0.00 | 0.00 | 0.00 | 52 | 1013.6 | |
| 20260904232753 | 71 | 0.0 | 0.0 | 0.00 | 0.00 | 0.00 | 51 | 1013.6 | |
| 20260904231754 | 71 | 0.0 | 0.0 | 0.00 | 0.00 | 0.00 | 50 | 1013.6 | |
| 20260904225530 | 71 | 0.0 | 0.0 | 0.00 | 0.00 | 0.00 | 49 | 1013.4 | |
| 20260904224530 | 71 | 0.0 | 0.0 | 0.00 | 0.00 | 0.00 | 49 | 1013.4 | |
| 20260904223529 | 71 | 0.0 | 0.0 | 0.00 | 0.00 | 0.00 | 49 | 1013.4 | |
| 20260904222530 | 71 | 0.0 | 0.0 | 0.00 | 0.00 | 0.00 | 49 | 1013.5 | |
| 20260904221530 | 71 | 0.0 | 0.0 | 0.00 | 0.00 | 0.00 | 49 | 1013.6 | |
| 20260904220530 | 71 | 0.0 | 0.0 | 0.00 | 0.00 | 0.00 | 49 | 1013.4 | |
| 20260904213043 | 71 | 0.0 | 0.0 | 0.00 | 0.00 | 0.00 | 48 | 1013.3 | |
| 20260904210819 | 71 | 0.0 | 0.0 | 0.00 | 0.00 | 0.00 | 49 | 1013.5 | |
| 20260904205820 | 71 | 0.0 | 0.0 | 0.00 | 0.00 | 0.00 | 49 | 1013.4 | |
| 20260904201109 | 72 | 0.0 | 0.0 | 0.00 | 0.00 | 0.00 | 47 | 1013.5 | |
| 20260904200109 | 72 | 0.0 | 0.0 | 0.00 | 0.00 | 0.00 | 46 | 1013.6 | |
| 20260904195109 | 73 | 0.0 | 0.0 | 0.00 | 0.00 | 0.00 | 45 | 1013.8 | |
| 20260904194109 | 73 | 0.0 | 0.0 | 0.00 | 0.00 | 0.00 | 45 | 1014.0 | |
| 20260904193108 | 73 | 0.0 | 0.0 | 0.00 | 0.00 | 0.00 | 45 | 1014.0 | |
| 20260904192109 | 74 | 0.0 | 0.0 | 0.00 | 0.00 | 0.00 | 44 | 1014.0 | |
| 20260904185844 | 74 | 0.0 | 0.0 | 0.00 | 0.00 | 0.00 | 43 | 1014.1 | |
| 20260904184844 | 75 | 0.0 | 0.0 | 0.00 | 0.00 | 0.00 | 42 | 1014.0 | |
| 20260904183844 | 75 | 0.0 | 0.0 | 0.00 | 0.00 | 0.00 | 42 | 1013.9 | |
| 20260904182844 | 75 | 0.0 | 0.0 | 0.00 | 0.00 | 0.00 | 42 | 1013.8 | |
| 20260904181844 | 75 | 0.0 | 0.0 | 0.00 | 0.00 | 0.00 | 42 | 1013.8 | |
| 20260904180844 | 75 | 0.0 | 0.0 | 0.00 | 0.00 | 0.00 | 43 | 1013.7 | |
| 20260904175844 | 75 | 0.0 | 0.0 | 0.00 | 0.00 | 0.00 | 43 | 1013.4 | |
| 20260904174844 | 76 | 0.0 | 0.0 | 0.00 | 0.00 | 0.00 | 42 | 1013.3 | |
| 20260904173844 | 76 | 0.0 | 0.0 | 0.00 | 0.00 | 0.00 | 42 | 1013.2 | |
| 20260904172845 | 76 | 0.0 | 0.0 | 0.00 | 0.00 | 0.00 | 41 | 1013.0 | |
| 20260904171844 | 77 | 0.0 | 0.0 | 0.00 | 0.00 | 0.00 | 40 | 1013.0 | |
| 20260904170844 | 77 | 0.0 | 0.0 | 0.00 | 0.00 | 0.00 | 40 | 1013.0 | |
| 20260904165844 | 77 | 0.0 | 0.0 | 0.00 | 0.00 | 0.00 | 40 | 1013.0 | |
| 20260904164844 | 77 | 0.0 | 0.0 | 0.00 | 0.00 | 0.00 | 40 | 1013.1 | |
| 20260904163844 | 77 | 0.0 | 0.0 | 0.00 | 0.00 | 0.00 | 40 | 1013.2 | |
| 20260904162844 | 77 | 0.0 | 0.0 | 0.00 | 0.00 | 0.00 | 39 | 1013.3 | |
| 20260904161844 | 78 | 0.0 | 0.0 | 0.00 | 0.00 | 0.00 | 39 | 1013.3 | |
| 20260904160844 | 78 | 0.0 | 0.0 | 0.00 | 0.00 | 0.00 | 39 | 1013.4 | |
| 20260904155844 | 78 | 0.0 | 0.0 | 0.00 | 0.00 | 0.00 | 39 | 1013.4 | |
| 20260904153620 | 79 | 0.0 | 0.0 | 0.00 | 0.00 | 0.00 | 38 | 1013.9 | |
| 20260904152621 | 79 | 0.0 | 0.0 | 0.00 | 0.00 | 0.00 | 39 | 1014.0 | |
| 20260904151620 | 79 | 0.0 | 0.0 | 0.00 | 0.00 | 0.00 | 39 | 1013.8 | |
| 20260904145356 | 78 | 0.0 | 0.0 | 0.00 | 0.00 | 0.00 | 40 | 1014.5 | |
| 20260904144357 | 78 | 0.0 | 0.0 | 0.00 | 0.00 | 0.00 | 40 | 1014.6 | |
| 20260904143356 | 77 | 0.0 | 0.0 | 0.00 | 0.00 | 0.00 | 39 | 1014.7 | |
| 20260904142356 | 78 | 0.0 | 0.0 | 0.00 | 0.00 | 0.00 | 40 | 1014.9 | |
| 20260904141356 | 78 | 0.0 | 0.0 | 0.00 | 0.00 | 0.00 | 40 | 1015.0 | |
| 20260904140356 | 77 | 0.0 | 0.0 | 0.00 | 0.00 | 0.00 | 39 | 1014.9 | |
| 20260904135356 | 77 | 0.0 | 0.0 | 0.00 | 0.00 | 0.00 | 40 | 1014.9 | |
| 20260904133132 | 77 | 0.0 | 0.0 | 0.00 | 0.00 | 0.00 | 42 | 1015.4 | |
| 20260904132132 | 76 | 0.0 | 0.0 | 0.00 | 0.00 | 0.00 | 41 | 1015.4 | |
| 20260904131132 | 76 | 0.0 | 0.0 | 0.00 | 0.00 | 0.00 | 41 | 1015.7 | |
| 20260904130132 | 76 | 0.0 | 0.0 | 0.00 | 0.00 | 0.00 | 43 | 1015.9 | |
| 20260904125132 | 76 | 0.0 | 0.0 | 0.00 | 0.00 | 0.00 | 44 | 1015.9 | |
| 20260904124132 | 75 | 0.0 | 0.0 | 0.00 | 0.00 | 0.00 | 45 | 1016.0 | |
| 20260904123132 | 76 | 0.0 | 0.0 | 0.00 | 0.00 | 0.00 | 44 | 1016.0 | |
| 20260904122132 | 74 | 0.0 | 0.0 | 0.00 | 0.00 | 0.00 | 48 | 1016.2 | |
| 20260904121132 | 74 | 0.0 | 0.0 | 0.00 | 0.00 | 0.00 | 47 | 1016.3 | |
| 20260904120131 | 74 | 0.0 | 0.0 | 0.00 | 0.00 | 0.00 | 47 | 1016.8 | |
| 20260904115132 | 75 | 0.0 | 0.0 | 0.00 | 0.00 | 0.00 | 47 | 1016.9 | |
| 20260904114132 | 74 | 0.0 | 0.0 | 0.00 | 0.00 | 0.00 | 47 | 1016.9 | |
| 20260904113132 | 75 | 0.0 | 0.0 | 0.00 | 0.00 | 0.00 | 47 | 1017.1 | |
| 20260904112132 | 75 | 0.0 | 0.0 | 0.00 | 0.00 | 0.00 | 47 | 1017.1 | |
| 20260904111132 | 73 | 0.0 | 0.0 | 0.00 | 0.00 | 0.00 | 49 | 1017.4 | |
| 20260904110132 | 73 | 0.0 | 0.0 | 0.00 | 0.00 | 0.00 | 50 | 1017.5 | |
| 20260904105132 | 72 | 0.0 | 0.0 | 0.00 | 0.00 | 0.00 | 51 | 1017.4 | |
| 20260904104132 | 72 | 0.0 | 0.0 | 0.00 | 0.00 | 0.00 | 52 | 1017.6 | |
| 20260904103132 | 71 | 0.0 | 0.0 | 0.00 | 0.00 | 0.00 | 54 | 1017.7 | |
| 20260904102132 | 71 | 0.0 | 0.0 | 0.00 | 0.00 | 0.00 | 52 | 1017.8 | |
| 20260904101131 | 72 | 0.0 | 0.0 | 0.00 | 0.00 | 0.00 | 53 | 1018.0 | |
| 20260904100132 | 71 | 0.0 | 0.0 | 0.00 | 0.00 | 0.00 | 53 | 1018.1 | |
| 20260904093908 | 71 | 0.0 | 0.0 | 0.00 | 0.00 | 0.00 | 56 | 1018.6 | |
| 20260904092908 | 70 | 0.0 | 0.0 | 0.00 | 0.00 | 0.00 | 57 | 1018.9 | |
| 20260904091907 | 70 | 0.0 | 0.0 | 0.00 | 0.00 | 0.00 | 57 | 1019.0 | |
| 20260904090907 | 70 | 0.0 | 0.0 | 0.00 | 0.00 | 0.00 | 55 | 1019.1 | |
| 20260904085907 | 69 | 0.0 | 0.0 | 0.00 | 0.00 | 0.00 | 57 | 1019.3 | |
| 20260904084908 | 69 | 0.0 | 0.0 | 0.00 | 0.00 | 0.00 | 58 | 1019.5 | |
| 20260904083907 | 70 | 0.0 | 0.0 | 0.00 | 0.00 | 0.00 | 57 | 1019.3 | |
| 20260904082908 | 69 | 0.0 | 0.0 | 0.00 | 0.00 | 0.00 | 58 | 1019.4 | |
| 20260904081908 | 68 | 0.0 | 0.0 | 0.00 | 0.00 | 0.00 | 60 | 1019.2 | |
| 20260904080908 | 67 | 0.0 | 0.0 | 0.00 | 0.00 | 0.00 | 60 | 1019.2 | |
| 20260904075908 | 67 | 0.0 | 0.0 | 0.00 | 0.00 | 0.00 | 61 | 1019.2 | |
| 20260904074907 | 68 | 0.0 | 0.0 | 0.00 | 0.00 | 0.00 | 61 | 1019.2 | |
| 20260904073907 | 66 | 0.0 | 0.0 | 0.00 | 0.00 | 0.00 | 63 | 1019.3 | |
| 20260904071644 | 66 | 0.0 | 0.0 | 0.00 | 0.00 | 0.00 | 64 | 1019.4 | |
| 20260904070644 | 66 | 0.0 | 0.0 | 0.00 | 0.00 | 0.00 | 66 | 1019.4 | |
| 20260904065645 | 65 | 0.0 | 0.0 | 0.00 | 0.00 | 0.00 | 66 | 1019.4 | |
| 20260904064644 | 64 | 0.0 | 0.0 | 0.00 | 0.00 | 0.00 | 67 | 1019.4 | |
| 20260904063643 | 64 | 0.0 | 0.0 | 0.00 | 0.00 | 0.00 | 68 | 1019.5 | |
| 20260904060156 | 62 | 0.0 | 0.0 | 0.00 | 0.00 | 0.00 | 72 | 1019.7 |